Regional Weather Roundup
Issued by NWS

Home | Current Version | Previous Version | Graphics & Text | Print | Product List | Glossary On
Versions: 1 2 3 4 5 6 7 8 9 10 11 12 13 14 15 16 17 18 19 20 21 22 23 24 25 26 27 28 29 30 31 32 33 34 35 36 37 38 39 40 41 42 43 44 45 46 47 48 49 50
000
ASUS45 KPSR 281800
RWRAZ

ARIZONA HOURLY REGIONAL WEATHER ROUNDUP
NATIONAL WEATHER SERVICE PHOENIX AZ
1100 AM MST THU MAY 28 2015

NOTE: FAIR INDICATES FEW OR NO CLOUDS BELOW 12,000 FEET WITH NO
SIGNIFICANT WEATHER AND/OR OBSTRUCTIONS TO VISIBILITY.

AZZ001>003-036-281900-
NORTHWEST ARIZONA

CITY           SKY/WX    TMP DP  RH WIND       PRES   REMARKS
KINGMAN        SUNNY     83  24  11 SW9       30.05S
6HR MIN TEMP:  55; 6HR MAX TEMP:  84;

$$

AZZ004>008-015-016-018-281900-
NORTH CENTRAL ARIZONA

CITY           SKY/WX    TMP DP  RH WIND       PRES   REMARKS
GRAND CANYON   SUNNY     71  26  18 VRB7      30.23R
6HR MIN TEMP:  34; 6HR MAX TEMP:  72;

WILLIAMS       SUNNY     72  28  20 S10       30.29S
PRESCOTT       SUNNY     76  21  12 S7        30.14S
6HR MIN TEMP:  44; 6HR MAX TEMP:  77;

FLAGSTAFF      NOT AVBL
PAYSON         SUNNY     75  21  13 SW8G15    30.18S
PAGE           SUNNY     76  42  29 VRB7      30.08F
6HR MIN TEMP:  59; 6HR MAX TEMP:  77;

$$

AZZ009>014-017-281900-
NORTHEAST ARIZONA

CITY           SKY/WX    TMP DP  RH WIND       PRES   REMARKS
WINSLOW        NOT AVBL
SAINT JOHNS    SUNNY     76  10   8 MISG      30.15S
6HR MIN TEMP:  46; 6HR MAX TEMP:  76;

WINDOW ROCK    MOSUNNY   73  28  18 VRB5      30.19F
6HR MIN TEMP:  36; 6HR MAX TEMP:  73;

$$

AZZ023-281900-
GREATER PHOENIX AREA

CITY           SKY/WX    TMP DP  RH WIND       PRES   REMARKS
PHOENIX        SUNNY     89  34  14 CALM      29.93S
6HR MIN TEMP:  71; 6HR MAX TEMP:  90;

GLENDALE       SUNNY     90  34  13 E6        29.95S
LUKE AFB       SUNNY     90  37  15 SE5       29.92F
6HR MIN TEMP:  64; 6HR MAX TEMP:  90;

DEER VALLEY    SUNNY     88  31  13 CALM      29.95S
6HR MIN TEMP:  65; 6HR MAX TEMP:  88;

SCOTTSDALE     SUNNY     89  31  12 SW3       29.96S
6HR MIN TEMP:  64; 6HR MAX TEMP:  89;

MESA-FALCON    SUNNY     88  34  14 W7        29.95S
MESA-GATEWAY   SUNNY     86  36  16 VRB3      29.97S
CHANDLER       SUNNY     88  39  18 VRB5      29.95S
$$

AZZ027-028-281900-
SOUTHWEST MARICOPA COUNTY AND PINAL COUNTY

CITY           SKY/WX    TMP DP  RH WIND       PRES   REMARKS
CASA GRANDE    SUNNY     88  36  15 CALM      29.94F
6HR MIN TEMP:  63; 6HR MAX TEMP:  88;

GILA BEND      SUNNY     90  33  13 VRB2      29.92S
6HR MIN TEMP:  67; 6HR MAX TEMP:  90;

$$

AZZ503-504-507>509-281900-
SOUTHEAST ARIZONA

CITY           SKY/WX    TMP DP  RH WIND       PRES   REMARKS
TUCSON         SUNNY     88  27  11 VRB3      30.02S
6HR MIN TEMP:  62; 6HR MAX TEMP:  90;

DAVIS-MONTHAN  SUNNY     87  27  11 E2        30.00S
6HR MIN TEMP:  61; 6HR MAX TEMP:  87;

RYAN FIELD       N/A     90  32  12 E8        30.00F
NOGALES        SUNNY     85  24  11 S9        30.08S
6HR MIN TEMP:  51; 6HR MAX TEMP:  86;

SIERRA VISTA   SUNNY     80  26  13 SE9       30.13F
6HR MIN TEMP:  59; 6HR MAX TEMP:  80;

SAFFORD        SUNNY     86  26  11 NW5       30.01F
6HR MIN TEMP:  56; 6HR MAX TEMP:  87;

$$

AZZ020-021-025-026-031-281900-
SOUTHWEST ARIZONA

CITY           SKY/WX    TMP DP  RH WIND       PRES   REMARKS
YUMA           NOT AVBL
$$

CAZ031-033-041-043-047-048-061-281900-
SOUTHERN CALIFORNIA

CITY           SKY/WX    TMP DP  RH WIND       PRES   REMARKS
DOWNTOWN L.A.  CLOUDY    67  55  65 CALM      30.00S HAZE
6HR MIN TEMP:  58; 6HR MAX TEMP:  67;

L.A. AIRPORT   CLOUDY    62  56  80 W6        30.02R
6HR MIN TEMP:  58; 6HR MAX TEMP:  63;

SAN DIEGO      CLOUDY    64  55  72 NW6       30.03R
6HR MIN TEMP:  62; 6HR MAX TEMP:  65;

BURBANK        SUNNY     68  54  60 S6        29.99S
6HR MIN TEMP:  55; 6HR MAX TEMP:  68;

ONTARIO        PTSUNNY   67  54  63 SW6       30.00S HAZE
6HR MIN TEMP:  54; 6HR MAX TEMP:  67;

RIVERSIDE      SUNNY     68  55  63 VRB6      30.00S HAZE
6HR MIN TEMP:  55; 6HR MAX TEMP:  68;

PALM SPRINGS   MOSUNNY   90  45  21 CALM      29.91S
6HR MIN TEMP:  68; 6HR MAX TEMP:  90;

EL CENTRO NAS  MOSUNNY   88  54  31 CALM      29.90R
6HR MIN TEMP:  63; 6HR MAX TEMP:  88;

IMPERIAL       SUNNY     87  53  31 VRB5      29.88S
6HR MIN TEMP:  67; 6HR MAX TEMP:  87;

BLYTHE         SUNNY     91  40  16 S7        29.90S
6HR MIN TEMP:  67; 6HR MAX TEMP:  91;

$$

NVZ020-UTZ003-281900-
SOUTHERN NEVADA-UTAH

CITY           SKY/WX    TMP DP  RH WIND       PRES   REMARKS
LAS VEGAS      NOT AVBL
SALT LAKE CITY MOSUNNY   66  45  46 W7        30.11S
6HR MIN TEMP:  52; 6HR MAX TEMP:  67; 6HR PCP:  0.10;

$$

NMZ009-TXZ055-281900-
NEW MEXICO-WEST TEXAS

CITY           SKY/WX    TMP DP  RH WIND       PRES   REMARKS
ALBUQUERQUE    MOSUNNY   75  29  18 CALM      30.13F
6HR MIN TEMP:  54; 6HR MAX TEMP:  76;

EL PASO        MOSUNNY   89  14   6 W16G23    30.02F
6HR MIN TEMP:  68; 6HR MAX TEMP:  90;

$$


........................KEY........................
SKY/WX - SKY CONDITION/WEATHER
TMP    - TEMPERATURE IN FAHRENHEIT
DP     - DEW POINT IN FAHRENHEIT
RH     - RELATIVE HUMIDITY IN PERCENT
WIND   - DIRECTION AND SPEED IN MILES PER HOUR (MPH)
VRB    - VARIABLE WIND DIRECTION
PRES   - MEAN SEA LEVEL PRESSURE IN INCHES OF MERCURY
         F - FALLING PRESSURE   R - RISING PRESSURE
         S - STEADY PRESSURE
VSB    - VISIBILITY IN MILES
HX     - HEAT INDEX IN FAHRENHEIT
WCI    - WIND CHILL INDEX IN FAHRENHEIT
TC     - TEMPERATURE IN CELSIUS WHICH IS ALSO KNOWN AS
         TEMPERATURE IN CENTIGRADE
AFB    - AIR FORCE BASE
         LUKE AFB IS LUKE AIR FORCE BASE
         DAVIS-MONTHAN IS DAVIS-MONTHAN AIR FORCE BASE
NAS    - NAVAL AIR STATION
         EL CENTRO NAS IS EL CENTRO NAVAL AIR STATION
N/A    - NOT AVAILABLE



USA.gov is the U.S. government's official web portal to all federal, state and local government web resources and services.